Home > Weather > Corner Brook > Past weeks

Flag for Canada Weather for the Past 2 Weeks in Corner Brook, Newfoundland and Labrador, Canada

Now
12 °F

Snow flurries. Passing clouds.


Feels Like: 12 °F
Forecast: 7 / 18 °F
Wind: No wind

Location: Deer Lake

Current Time: Feb 8, 2016 at 7:04:34 AM

Latest Report: Feb 8, 2016 at 6:30 AM


Visibility: 12 mi

Pressure: 30.20 "Hg

Humidity: 79%

Dew point: 7 °F

Location of Corner BrookLocation

Historic Weather in Corner Brook — Graph

°F

Corner Brook Temperature Yesterday

Maximum temperature yesterday: 32 °F (at 4:30 PM)
Minimum temperature yesterday: 12 °F (at 9:30 AM)
Average temperature yesterday: 22 °F

High & Low Weather Summary for the Past Weeks

 TemperatureHumidityPressure
High43 °F (Feb 1, 10:30 PM)100% (Feb 1, 6:30 AM)30.37 "Hg (Feb 1, 6:30 AM)
Low-9 °F (Jan 24, 7:30 AM)45% (Jan 24, 4:30 PM)29.06 "Hg (Jan 30, 1:30 AM)
Average22 °F80%29.84 "Hg
* Reported Jan 24 5:30 AM — Feb 8 5:30 AM, Corner Brook, Weather by CustomWeather, © 2016

Note: Actual official high and low records may vary slightly from our data, if they occured in-between our weather recording intervals... More about our weather records

Advertising

Corner Brook Weather History for the Previous 24 Hours

 ConditionsComfort  
Time TempWeatherWind HumidityBarometerVisibility
5:30 AM
Mon, Feb 8
16 °FPassing clouds.No wind73%30.16 "Hg12 mi
4:30 AM16 °FSnow flurries. Passing clouds.3 mph73%30.11 "Hg12 mi
3:30 AM16 °FHeavy snow. Passing clouds.9 mph79%30.04 "Hg10 mi
2:30 AM18 °FSnow flurries. Passing clouds.14 mph73%30.01 "Hg12 mi
1:30 AM19 °FCold.18 mph68%29.96 "Hg10 mi
12:30 AM18 °FSnow flurries. Passing clouds.2 mph73%29.92 "Hg12 mi
11:30 PM
Sun, Feb 7
18 °FSnow flurries. Passing clouds.18 mph68%29.90 "Hg12 mi
10:30 PM18 °FSnow flurries. Overcast.17 mph79%29.90 "Hg3 mi
9:30 PM18 °FSnow flurries. Overcast.18 mph73%29.89 "Hg3 mi
8:30 PM19 °FSnow flurries. Ice fog.18 mph86%29.85 "Hg1 mi
7:30 PM25 °FSnow flurries. Mostly cloudy.20 mph80%29.79 "Hg3 mi
6:30 PM27 °FSnow flurries. Mostly cloudy.15 mph86%29.77 "Hg3 mi
5:30 PM30 °FLight snow. Mostly cloudy.23 mph93%29.72 "Hg3 mi
5:20 PM30 °FLight snow. Mostly cloudy.25 mph93%29.72 "Hg3 mi
4:30 PM32 °FLight snow. More clouds than sun.15 mph80%29.72 "Hg5 mi
3:30 PM30 °FLight snow. Mostly cloudy.12 mph93%29.76 "Hg2 mi
2:30 PM28 °FLight snow. Mostly cloudy.7 mph86%29.80 "Hg1 mi
1:30 PM28 °FLight snow. Mostly cloudy.7 mph80%29.86 "Hg2 mi
12:30 PM28 °FSnow flurries. Mostly cloudy.10 mph69%29.92 "Hg12 mi
11:30 AM23 °FSnow flurries. Mostly cloudy.5 mph80%29.97 "Hg10 mi
10:30 AM19 °FLight mixture of precip. Mostly cloudy.No wind79%30.01 "Hg15 mi
9:30 AM12 °FBroken clouds.2 mph85%30.04 "Hg15 mi
8:30 AM14 °FPartly sunny.3 mph85%30.05 "Hg15 mi
7:30 AM14 °FScattered clouds.2 mph92%30.05 "Hg15 mi
Weather by CustomWeather, © 2016

See weather overviewHow to use our weather pages